Location: Anankanda
(14.7841°N, 3.0348°W)
Time: 01:49:09
(UTC+00:00)

Cosmos 1300 - Pass Details

Date: 17 January 2021
Orbit: 511 x 513 km, 82.5° (Epoch: 07 March)

Event Time Altitude Azimuth Distance (km) Brightness Sun altitude
Rises 18:21:31 0° 2° (N) 2,617 6.1 -4.9°
Reaches altitude 10° 18:23:40 10° 7° (N) 1,731 5.1 -5.4°
Maximum altitude 18:27:23 54° 85° (E) 624 2.8 -6.3°
Drops below altitude 10° 18:31:06 10° 163° (SSE) 1,728 5.4 -7.1°
Sets 18:33:15 0° 168° (SSE) 2,612 6.4 -7.6°
